BKP151 VTBS-VTSM

Flight info

Callsign BKP151
Flight time N/A
Altitude 31000
Route KASNI1E KASNI M757 MABKO W33 UPNEP
Aircraft A319/M-SDE3FGHIRWY/LB1

Departure

Time N/A
Airport Suvarnabhumi Airport (VTBS)

Arrival

Time 2026-04-24 19:28
Airport Samui International Airport (VTSM)
Time Latitude Longitude Altitude Speed Heading
2026-04-24 18:54 12.66467 100.66745 23819 ft 418 kts 181°
2026-04-24 18:55 12.60612 100.66592 24449 ft 423 kts 181°
2026-04-24 18:55 12.57664 100.66520 24775 ft 425 kts 181°
2026-04-24 18:55 12.54693 100.66445 25076 ft 427 kts 180°
2026-04-24 18:56 12.51706 100.66368 25385 ft 430 kts 180°
2026-04-24 18:56 12.48744 100.66290 25708 ft 431 kts 181°
2026-04-24 18:56 12.45735 100.66212 26001 ft 434 kts 181°
2026-04-24 18:56 12.42706 100.66134 26338 ft 435 kts 181°
2026-04-24 18:57 12.39670 100.66054 26639 ft 437 kts 181°
2026-04-24 18:57 12.36620 100.65976 26938 ft 439 kts 180°
2026-04-24 18:57 12.33547 100.65899 27231 ft 442 kts 181°
2026-04-24 18:57 12.30468 100.65819 27527 ft 444 kts 180°
2026-04-24 18:58 12.27365 100.65734 27780 ft 447 kts 180°
2026-04-24 18:58 12.24240 100.65649 28096 ft 448 kts 181°
2026-04-24 18:58 12.21113 100.65564 28406 ft 450 kts 180°
2026-04-24 18:58 12.18016 100.65482 28713 ft 451 kts 180°
2026-04-24 18:59 12.14872 100.65403 29061 ft 452 kts 180°
2026-04-24 18:59 12.11721 100.65322 29363 ft 454 kts 180°
2026-04-24 18:59 12.08552 100.65240 29636 ft 456 kts 180°
2026-04-24 18:59 12.05355 100.65154 29917 ft 458 kts 180°
2026-04-24 19:00 12.02154 100.65070 30149 ft 460 kts 180°
2026-04-24 19:00 11.98942 100.64987 30382 ft 462 kts 180°
2026-04-24 19:00 11.95753 100.64909 30617 ft 464 kts 180°
2026-04-24 19:00 11.92514 100.64830 30805 ft 465 kts 180°
2026-04-24 19:01 11.89296 100.64752 30857 ft 455 kts 180°
2026-04-24 19:01 11.86167 100.64672 30859 ft 441 kts 180°
2026-04-24 19:01 11.83169 100.64594 30866 ft 432 kts 180°
2026-04-24 19:02 11.78178 100.64468 30862 ft 429 kts 180°
2026-04-24 19:02 11.71255 100.64291 30862 ft 427 kts 180°
2026-04-24 19:03 11.65293 100.64138 30863 ft 427 kts 180°
2026-04-24 19:03 11.59349 100.63984 30861 ft 427 kts 180°
2026-04-24 19:04 11.53362 100.63842 30863 ft 436 kts 180°
2026-04-24 19:04 11.47200 100.63691 30865 ft 453 kts 180°
2026-04-24 19:05 11.40760 100.63520 30863 ft 467 kts 180°
2026-04-24 19:05 11.34261 100.63355 30863 ft 469 kts 180°
2026-04-24 19:06 11.27730 100.63188 30863 ft 470 kts 180°
2026-04-24 19:06 11.21179 100.63017 30863 ft 470 kts 180°
2026-04-24 19:07 11.14632 100.62848 30863 ft 469 kts 180°
2026-04-24 19:07 11.11408 100.62769 30745 ft 471 kts 180°
2026-04-24 19:07 11.09226 100.62717 30554 ft 470 kts 180°
2026-04-24 19:07 11.04836 100.62612 30248 ft 471 kts 180°
2026-04-24 19:08 11.01550 100.62531 30023 ft 471 kts 180°
2026-04-24 19:08 10.98304 100.62449 29778 ft 471 kts 180°
2026-04-24 19:08 10.95022 100.62368 29507 ft 472 kts 180°
2026-04-24 19:08 10.91733 100.62288 29248 ft 472 kts 180°
2026-04-24 19:09 10.88441 100.62206 28988 ft 473 kts 180°
2026-04-24 19:09 10.85151 100.62121 28729 ft 473 kts 180°
2026-04-24 19:09 10.81853 100.62038 28474 ft 474 kts 180°
2026-04-24 19:09 10.78557 100.61957 28220 ft 474 kts 180°
2026-04-24 19:10 10.75247 100.61876 27977 ft 474 kts 180°
2026-04-24 19:10 10.71971 100.61794 27564 ft 475 kts 180°
2026-04-24 19:10 10.68669 100.61710 27093 ft 475 kts 180°
2026-04-24 19:10 10.65360 100.61625 26621 ft 476 kts 180°
2026-04-24 19:11 10.62046 100.61540 26138 ft 476 kts 180°
2026-04-24 19:11 10.58722 100.61457 25647 ft 477 kts 180°
2026-04-24 19:11 10.55399 100.61375 25137 ft 477 kts 181°
2026-04-24 19:11 10.52073 100.61295 24621 ft 478 kts 181°
2026-04-24 19:12 10.48744 100.61213 24084 ft 478 kts 181°
2026-04-24 19:12 10.45414 100.61130 23550 ft 478 kts 181°
2026-04-24 19:12 10.42104 100.61051 22945 ft 479 kts 181°
2026-04-24 19:12 10.38767 100.60971 22402 ft 479 kts 181°
2026-04-24 19:13 10.36559 100.60915 22040 ft 479 kts 181°
2026-04-24 19:13 10.32099 100.60800 21303 ft 479 kts 181°
2026-04-24 19:13 10.28772 100.60717 20771 ft 473 kts 181°
2026-04-24 19:13 10.25591 100.60640 20621 ft 452 kts 181°
2026-04-24 19:14 10.22512 100.60565 20493 ft 429 kts 181°
2026-04-24 19:14 10.19608 100.60495 20373 ft 404 kts 181°
2026-04-24 19:14 10.16867 100.60428 20244 ft 383 kts 181°
2026-04-24 19:14 10.14240 100.60361 19800 ft 371 kts 181°
2026-04-24 19:15 10.11708 100.60296 19218 ft 366 kts 181°
2026-04-24 19:15 10.09174 100.60234 18615 ft 362 kts 181°
2026-04-24 19:15 10.06657 100.60175 17960 ft 359 kts 181°
2026-04-24 19:15 10.04163 100.60117 17276 ft 356 kts 180°
2026-04-24 19:16 9.99293 100.59998 15953 ft 349 kts 180°
2026-04-24 19:16 9.96874 100.59939 15349 ft 345 kts 180°
2026-04-24 19:16 9.94504 100.59879 14931 ft 336 kts 180°
2026-04-24 19:17 9.92192 100.59821 14533 ft 327 kts 179°
2026-04-24 19:17 9.89937 100.59765 14155 ft 323 kts 180°
2026-04-24 19:17 9.87682 100.59710 13773 ft 322 kts 179°
2026-04-24 19:17 9.85446 100.59657 13363 ft 321 kts 179°
2026-04-24 19:18 9.83243 100.59600 12984 ft 319 kts 181°
2026-04-24 19:18 9.81072 100.59182 12609 ft 319 kts 198°
2026-04-24 19:18 9.79097 100.58168 12213 ft 319 kts 214°
2026-04-24 19:18 9.77446 100.56653 11830 ft 320 kts 224°
2026-04-24 19:19 9.75894 100.55041 11432 ft 318 kts 224°
2026-04-24 19:19 9.74341 100.53439 11042 ft 317 kts 224°
2026-04-24 19:19 9.72802 100.51843 10668 ft 316 kts 226°
2026-04-24 19:19 9.71582 100.50025 10288 ft 317 kts 244°
2026-04-24 19:20 9.70946 100.47888 10003 ft 314 kts 262°
2026-04-24 19:20 9.70950 100.45694 9673 ft 312 kts 278°
2026-04-24 19:20 9.71303 100.43525 9262 ft 311 kts 279°
2026-04-24 19:20 9.71656 100.41369 8926 ft 308 kts 279°
2026-04-24 19:21 9.71999 100.39245 8560 ft 307 kts 279°
2026-04-24 19:21 9.72342 100.37109 8176 ft 307 kts 279°
2026-04-24 19:21 9.72681 100.34988 7868 ft 303 kts 279°
2026-04-24 19:21 9.73010 100.32909 7491 ft 303 kts 279°
2026-04-24 19:22 9.73236 100.31487 7328 ft 300 kts 279°
2026-04-24 19:22 9.73480 100.28704 6897 ft 296 kts 269°
2026-04-24 19:22 9.73474 100.26648 6778 ft 287 kts 270°
2026-04-24 19:22 9.73476 100.24653 6660 ft 278 kts 270°
2026-04-24 19:23 9.73480 100.22719 6543 ft 269 kts 270°
2026-04-24 19:23 9.73484 100.20870 6424 ft 259 kts 270°
2026-04-24 19:23 9.73487 100.19068 6043 ft 258 kts 270°
2026-04-24 19:23 9.73489 100.17201 5364 ft 270 kts 271°
2026-04-24 19:24 9.73490 100.15266 4671 ft 279 kts 270°
2026-04-24 19:24 9.73488 100.13333 4472 ft 267 kts 270°
2026-04-24 19:24 9.73146 100.11556 4344 ft 250 kts 244°
2026-04-24 19:24 9.72172 100.10209 4202 ft 232 kts 220°
2026-04-24 19:25 9.70822 100.09384 3881 ft 225 kts 202°
2026-04-24 19:25 9.69390 100.08729 3577 ft 224 kts 202°
2026-04-24 19:25 9.67973 100.08082 3245 ft 221 kts 202°
2026-04-24 19:25 9.66609 100.07457 2985 ft 205 kts 202°
2026-04-24 19:26 9.65353 100.06878 2638 ft 192 kts 202°
2026-04-24 19:26 9.64163 100.06331 2173 ft 188 kts 201°
2026-04-24 19:26 9.62986 100.05797 1690 ft 183 kts 200°
2026-04-24 19:26 9.61748 100.05581 1272 ft 180 kts 176°
2026-04-24 19:27 9.60516 100.05707 1036 ft 172 kts 173°
2026-04-24 19:27 9.59376 100.05822 815 ft 156 kts 172°
2026-04-24 19:27 9.58359 100.05919 652 ft 140 kts 173°
2026-04-24 19:27 9.57397 100.05990 394 ft 136 kts 171°
2026-04-24 19:28 9.56788 100.06043 295 ft 131 kts 172°
2026-04-24 19:28 9.55881 100.06140 126 ft 130 kts 172°
2026-04-24 19:28 9.55006 100.06227 54 ft 115 kts 174°
2026-04-24 19:28 9.54457 100.06279 53 ft 49 kts 174°
2026-04-24 19:29 9.54009 100.06322 53 ft 20 kts 175°
2026-04-24 19:29 9.53891 100.06311 53 ft 14 kts 180°
2026-04-24 19:29 9.53842 100.06331 53 ft 6 kts 98°
2026-04-24 19:30 9.53878 100.06336 53 ft 8 kts 347°
2026-04-24 19:30 9.53960 100.06326 53 ft 16 kts 354°
2026-04-24 19:30 9.54084 100.06313 53 ft 19 kts 353°
2026-04-24 19:30 9.54222 100.06301 53 ft 21 kts 357°
2026-04-24 19:31 9.54372 100.06287 53 ft 23 kts 354°
2026-04-24 19:31 9.54533 100.06270 51 ft 24 kts 354°
2026-04-24 19:31 9.54708 100.06253 53 ft 26 kts 355°
2026-04-24 19:31 9.54897 100.06235 53 ft 29 kts 354°
2026-04-24 19:32 9.55005 100.06240 53 ft 11 kts 47°
2026-04-24 19:32 9.55030 100.06304 51 ft 10 kts 28°
2026-04-24 19:32 9.55111 100.06300 50 ft 14 kts 354°
2026-04-24 19:32 9.55156 100.06304 53 ft 5 kts 54°
2026-04-24 19:33 9.55162 100.06331 53 ft 4 kts 85°
2026-04-24 19:33 9.55162 100.06338 53 ft 0 kts 85°